Orbital Elements at Epoch 2459200.5 (2020-Dec-17.0) TDB
Reference: JPL 24 (heliocentric ecliptic J2000)
Element | Value | Uncertainty (1-sigma) | Units |
e | .2344026499746433 | 3.5157e-08 | |
a | 2.593687996575711 | 1.4316e-08 | au |
q | 1.985720656970941 | 9.4802e-08 | au |
i | 2.121730830945762 | 4.6529e-06 | deg |
node | 5.289169009660158 | 0.00011289 | deg |
peri | 18.69797337140427 | 0.0001136 | deg |
M | 147.4427544250744 | 1.4835e-05 | deg |
tp | 2458575.620956810626 (2019-Apr-02.12095681) | 5.9222e-05 | TDB |
period | 1525.720652909331 4.18 | 1.2632e-05 3.458e-08 | d yr |
n | .2359540714832243 | 1.9536e-09 | deg/d |
Q | 3.201655336180481 | 1.7672e-08 | au |
|
| | Orbit Determination Parameters
Additional Information
|